Probability
0 0 0 0 0 0 0 0 0 0 0 0 0 0 0 0 0 0 0 0 0 0 1 1 1 0 0 0 0 0 0 0 0 0 0 0 0 0 0 0 0 0 0 0
0 0 0 0 0 0 0 0 0 0 0 0 0 0 0 0 0 0 0 0 0 0 0 1 1 1 0 0 0 0 0 0 0 0 0 0 0 0 0 0 0 0 0 0
0 0 0 0 0 0 0 0 0 0 0 0 0 0 0 0 0 0 0 0 0 0 0 1 1 1 0 0 0 0 0 0 0 0 0 0 0 0 0 0 0 0 0 0
0 0 0 0 0 0 0 0 0 0 0 0 0 0 0 0 0 0 0 0 0 0 0 0 0 0 0 0 0 0 0 0 0 0 0 0 0 0 0 0 0 0 0 0
0 0 0 0 0 0 0 0 0 0 0 0 0 0 0 0 0 0 0 0 0 0 0 0 0 0 0 0 0 0 0 0 0 0 0 0 0 0 0 0 0 0 0 0
0 0 0 0 0 0 0 0 0 0 0 0 0 0 0 0 0 0 0 0 0 0 0 0 0 1 1 0 0 0 0 0 0 0 0 0 0 0 0 0 0 0 0 0
0 0 0 0 0 0 0 0 0 0 0 0 0 0 0 0 0 0 0 0 0 0 0 0 0 1 1 0 0 0 0 0 0 0 0 0 0 0 0 0 0 0 0 0
0 0 0 0 0 0 0 0 0 0 0 0 0 0 0 0 0 0 0 0 0 0 0 0 0 1 1 0 0 0 0 0 0 0 0 0 0 0 0 0 0 0 0 0
0 0 0 0 0 0 0 0 0 0 0 0 0 0 0 0 0 0 0 0 0 0 0 0 0 0 0 0 0 0 0 0 0 0 0 0 0 0 0 0 0 0 0 0
0 0 0 0 0 0 0 0 0 0 0 0 0 0 0 0 0 0 0 0 0 0 0 0 0 0 0 0 0 0 0 0 0 0 0 0 0 0 0 0 0 0 0 0
0 0 0 0 0 0 0 0 0 0 0 0 0 0 0 0 0 0 0 0 0 0 0 0 0 0 0 0 0 0 0 0 0 0 0 0 0 0 0 0 0 0 0 0
0 0 0 0 0 0 0 0 0 0 0 0 0 0 0 0 0 0 0 0 0 0 0 0 0 0 0 0 0 0 0 0 0 0 0 0 0 0 0 0 0 0 0 0
0 0 0 0 0 0 0 0 0 0 0 0 0 0 0 0 0 0 0 0 0 0 0 0 0 0 0 0 0 0 0 0 0 0 0 0 0 0 0 0 0 0 0 0
0 0 0 0 0 0 0 0 0 0 0 0 0 0 0 0 0 0 0 0 0 0 0 0 0 0 0 0 0 0 0 0 0 0 0 0 0 0 0 0 0 0 0 0
0 0 0 0 0 0 0 0 0 0 0 0 0 0 0 0 0 0 0 0 0 0 0 0 0 0 0 0 0 0 0 0 0 0 0 0 0 0 0 0 0 0 0 0
0 0 0 0 0 0 0 0 0 0 0 0 0 0 0 0 0 0 0 0 0 0 0 0 0 0 0 0 0 0 0 0 0 0 0 0 0 0 0 0 0 0 0 0
0 0 0 0 0 0 0 0 0 0 0 0 0 0 0 0 0 0 0 0 0 0 0 0 0 0 0 0 0 0 0 0 0 0 0 0 0 0 0 0 0 0 0 0
0 0 0 0 0 0 0 0 0 0 0 0 0 0 0 0 0 0 0 0 0 0 0 0 0 0 0 0 0 0 0 0 0 0 0 0 0 0 0 0 0 0 0 0
0 0 0 0 0 0 0 0 0 0 0 0 0 0 0 0 0 0 0 0 0 0 0 0 0 0 0 0 0 0 0 0 0 0 0 0 0 0 0 0 0 0 0 0
0 0 0 0 0 0 0 0 0 0 0 0 0 0 0 0 0 0 0 0 0 0 0 0 0 0 0 0 0 0 0 0 0 0 0 0 0 0 0 0 0 0 0 0
0 0 0 0 0 0 0 0 0 0 0 0 0 0 0 0 0 0 0 0 0 0 0 0 0 1 1 1 0 0 0 0 0 0 0 0 0 0 0 0 0 0 0 0
0 0 0 0 0 0 0 0 0 0 0 0 0 0 0 0 0 0 0 0 0 0 0 0 0 1 2 1 0 0 0 0 0 0 0 0 0 0 0 0 0 0 0 0
0 0 0 1 0 0 0 0 0 0 0 0 0 0 0 0 0 0 0 0 0 0 0 0 1 2 2 2 1 1 1 1 1 0 0 0 0 0 0 0 0 0 0 0
0 0 0 0 0 0 0 0 0 0 0 0 0 0 0 0 0 0 0 0 0 0 0 0 1 1 1 2 2 1 1 1 1 2 1 0 0 0 0 0 0 0 0 0
0 0 0 0 0 0 0 0 0 0 0 0 0 0 0 0 0 0 0 0 0 0 0 0 0 0 0 1 1 1 0 0 1 2 1 0 0 0 0 0 0 0 0 0
0 0 0 0 0 0 0 0 0 0 0 0 0 0 0 0 0 0 0 0 0 0 0 0 0 0 0 0 0 0 0 0 1 1 1 0 0 0 0 0 0 0 0 0
Wind_Speed
4 5 4 3 2 0 0 1 1 1 1 1 2 3 3 1 4 5 5 6 6 6 6 6 6 5 5 5 4 4 5 4 3 2 2 2 2 2 2 2 3 2 2 2
6 5 3 2 3 3 3 3 2 1 1 2 2 4 3 2 3 4 5 6 6 6 7 7 7 7 7 6 5 5 5 4 3 1 1 1 2 2 2 2 2 2 2 2
7 2 3 5 5 5 4 3 3 2 2 3 4 2 1 1 2 2 3 4 6 7 8 9 8 7 6 6 6 4 5 5 4 3 1 2 2 2 2 2 2 1 2 2
5 3 4 5 4 5 3 2 3 3 4 1 3 3 1 0 1 2 3 3 5 7 8 8 8 8 7 6 5 6 6 5 4 4 2 2 2 1 2 2 2 2 2 2
5 4 5 5 4 4 1 0 3 4 4 4 4 5 1 1 1 1 2 3 3 5 7 8 8 8 7 6 5 5 5 5 4 3 3 3 2 1 1 1 2 2 2 2
3 2 3 3 2 3 3 4 4 4 5 5 2 4 2 1 3 3 1 1 3 5 7 7 7 7 7 6 6 6 6 5 4 4 4 3 3 2 2 2 2 2 2 2
6 5 4 3 5 5 6 6 4 5 5 2 1 4 2 3 3 4 3 1 3 5 7 7 8 8 8 8 7 7 7 6 6 5 4 4 3 3 2 2 2 1 2 2
7 6 5 4 6 4 6 7 4 3 2 1 3 3 1 3 3 3 3 2 3 5 6 6 7 8 8 8 7 7 7 6 6 5 5 4 3 2 1 2 1 1 1 1
5 4 4 2 2 4 6 5 4 4 3 4 3 2 1 2 2 3 3 3 3 4 5 6 6 7 7 8 8 7 7 7 6 6 5 4 4 3 2 2 2 1 2 2
4 4 4 3 4 1 3 3 4 5 4 4 3 3 1 2 2 2 3 3 2 3 5 5 5 6 7 7 7 7 7 7 6 6 5 3 4 3 3 3 3 2 2 2
5 5 5 6 5 4 5 6 5 4 5 4 3 2 3 2 2 2 2 2 2 3 4 4 5 6 6 6 7 7 7 6 6 6 6 5 4 4 4 3 2 2 3 3
3 5 5 5 2 2 5 6 7 6 5 5 4 1 5 2 2 2 2 2 2 3 3 4 4 5 6 6 6 7 7 7 6 6 6 6 5 5 5 4 4 3 2 2
3 6 6 7 7 6 5 5 6 6 6 6 7 2 4 1 2 2 2 2 2 3 3 3 4 5 5 6 6 6 6 6 6 6 6 6 6 6 5 5 4 4 3 3
5 7 8 7 2 4 6 6 7 9 8 8 9 7 3 2 3 2 2 0 1 2 3 3 3 4 4 5 6 6 6 5 6 6 7 7 6 6 6 5 5 4 4 3
5 8 7 6 4 6 8 9 10 12 11 11 9 9 8 6 5 3 2 0 1 2 2 3 3 3 3 4 4 5 5 5 6 7 7 7 6 6 5 5 5 5 4 4
4 6 6 8 6 7 11 12 13 13 13 13 13 12 7 6 4 3 2 1 2 2 2 2 3 3 3 4 4 5 5 5 6 7 6 6 6 6 6 6 5 5 5 5
5 6 7 7 6 8 12 12 13 12 12 12 13 10 6 6 5 5 3 3 2 2 2 2 3 3 3 4 4 5 5 6 6 6 6 6 6 6 6 5 5 5 5 5
7 8 5 6 7 12 3 1 6 9 9 10 10 8 7 7 6 5 4 3 3 2 2 2 2 2 3 3 4 4 5 5 6 6 5 5 6 6 5 6 6 6 6 5
9 9 6 6 9 9 5 4 6 8 8 7 8 8 7 6 6 5 3 3 3 3 3 2 2 2 2 3 4 5 5 6 6 6 5 6 6 6 6 6 6 6 5 5
8 9 8 8 9 9 3 3 3 7 8 4 6 6 5 5 7 4 1 3 3 3 2 2 2 3 3 2 3 5 5 6 6 6 5 5 6 7 7 7 7 5 5 5
9 9 12 12 11 8 2 3 5 8 2 1 3 4 5 6 6 4 4 4 4 3 3 3 3 3 3 3 4 5 5 6 5 5 5 5 5 6 6 6 5 5 5 5
10 9 11 10 11 8 4 6 7 2 1 1 2 3 4 5 5 5 5 5 4 3 3 3 3 3 3 4 5 6 5 4 4 4 4 5 5 4 4 5 5 5 5 6
10 8 6 8 6 0 3 4 3 3 4 4 4 4 5 5 6 6 6 6 5 4 3 3 3 3 3 4 5 6 4 3 4 4 4 4 4 4 4 5 6 5 5 5
7 6 8 8 8 7 6 6 6 6 6 6 6 6 6 7 7 7 6 5 5 4 4 4 4 4 4 4 5 5 4 4 5 5 5 4 4 4 4 4 5 5 5 5
7 7 9 11 9 8 9 8 7 7 7 7 7 8 8 8 8 7 6 6 5 4 4 4 5 5 5 4 4 4 4 5 5 5 4 4 4 4 4 4 3 4 5 4
11 11 12 11 9 8 8 7 7 8 9 9 8 8 8 8 9 8 7 6 5 5 5 5 5 5 5 5 5 4 5 5 5 5 4 4 4 4 4 4 3 1 1 1
Wind_Direction
184 203 199 192 196 282 223 235 229 54 72 245 271 297 304 230 214 222 216 208 205 203 179 162 170 174 175 173 178 160 160 146 139 145 156 142 128 115 110 101 99 117 122 113
186 209 219 192 174 203 224 229 221 178 140 263 294 293 291 261 230 233 226 210 209 202 188 174 180 180 179 174 180 172 160 154 148 143 146 125 114 112 93 114 127 136 135 127
204 126 154 178 182 199 218 246 255 265 236 232 277 269 189 162 205 215 228 225 213 205 198 184 186 182 178 180 182 175 162 158 156 157 151 138 139 157 147 139 128 116 120 134
210 176 180 197 203 226 217 241 248 244 244 247 288 304 20 232 212 214 219 219 212 202 201 190 185 182 185 181 181 177 163 165 159 167 184 182 187 170 141 134 134 144 134 147
183 180 193 210 214 230 245 147 227 236 255 265 248 269 312 93 306 271 232 223 210 197 190 188 187 183 184 174 174 177 163 165 165 179 180 209 186 162 146 154 149 157 137 151
188 189 229 225 177 197 160 171 175 210 238 253 263 259 304 52 343 339 345 215 191 184 178 179 176 177 178 173 173 176 172 166 165 182 191 198 187 193 187 188 165 168 147 149
191 189 187 203 191 180 208 221 213 206 208 218 123 248 283 28 2 344 344 24 159 165 170 170 171 177 177 178 180 178 179 176 173 182 193 197 210 217 216 208 174 187 162 155
204 189 176 199 224 213 213 237 252 263 239 160 184 238 76 38 17 10 23 60 126 152 165 169 174 178 179 182 184 184 184 182 180 186 191 196 191 217 205 206 192 185 177 149
217 184 143 175 233 237 209 221 265 280 274 262 211 198 169 93 54 46 56 67 107 148 162 170 172 176 179 181 182 187 186 186 186 189 189 192 190 191 187 190 189 176 177 158
250 211 159 162 180 150 275 210 214 235 247 239 216 227 210 83 39 45 58 72 100 140 159 169 172 174 176 178 181 186 191 192 188 188 190 195 196 185 192 194 186 183 172 172
239 228 177 180 207 196 184 202 220 230 254 266 240 145 73 32 15 14 43 72 108 138 153 161 169 174 173 172 177 187 191 193 190 191 190 193 190 191 189 192 181 194 189 183
230 246 213 198 158 276 232 227 228 238 229 250 269 137 99 35 19 8 32 72 101 127 144 154 163 169 174 178 182 192 194 194 194 195 194 197 190 197 197 188 189 200 197 192
201 230 212 193 188 190 206 212 230 246 247 239 242 192 114 51 25 21 17 52 104 130 142 152 159 168 179 184 188 190 196 197 193 196 200 200 200 205 205 198 193 203 200 200
245 238 244 244 241 198 213 215 225 233 238 242 243 253 249 293 317 340 347 343 116 139 153 158 163 170 181 188 196 191 195 194 190 194 201 201 204 207 211 209 204 207 205 204
244 239 240 256 264 245 241 233 227 235 245 253 258 259 266 280 291 297 299 234 147 155 169 172 178 181 184 186 197 197 195 193 192 196 201 203 206 205 209 207 208 212 210 207
236 239 233 237 235 246 251 245 239 240 244 248 257 263 266 275 269 261 255 220 210 200 201 201 200 200 197 193 199 196 194 195 198 199 202 197 202 201 205 207 207 209 210 211
211 231 239 238 231 250 245 238 234 231 233 240 247 252 254 253 258 265 264 238 242 230 217 222 222 222 220 212 208 202 197 193 200 203 202 197 199 199 202 201 204 204 206 208
226 226 235 246 233 238 235 200 230 232 239 243 253 258 257 256 263 266 264 250 246 243 231 232 237 231 229 220 213 209 195 197 201 202 201 200 201 202 203 202 203 205 206 205
230 222 225 232 239 254 240 218 222 229 241 245 248 253 255 260 252 238 240 263 265 258 253 246 246 241 228 223 213 208 202 203 205 206 203 204 203 204 207 210 211 210 209 210
206 221 228 227 237 242 206 164 227 240 238 234 244 248 247 244 248 243 293 287 273 266 268 267 258 250 231 227 219 213 210 210 213 215 213 211 211 208 207 211 214 210 208 214
186 203 222 229 238 250 224 188 201 225 231 127 247 253 252 253 279 311 309 287 275 268 266 261 252 245 234 224 219 218 218 220 217 214 212 212 214 212 210 209 209 205 203 209
206 204 212 218 229 233 163 190 215 259 24 294 295 293 285 281 289 293 301 302 283 269 262 257 254 250 237 222 222 224 225 223 214 206 208 212 211 206 201 200 205 205 201 201
224 225 226 227 236 142 187 222 243 271 272 291 297 302 301 293 289 291 292 294 285 269 262 255 251 250 238 222 225 231 226 212 207 203 206 212 209 201 197 195 197 200 202 205
219 226 238 245 243 243 246 247 248 256 271 286 289 290 288 287 288 289 289 288 281 269 264 256 243 239 236 229 227 230 223 214 208 207 210 211 210 203 197 198 199 201 203 206
226 216 232 245 249 253 245 244 254 268 277 281 284 284 282 283 280 281 282 282 274 264 258 248 238 236 238 236 234 227 221 216 213 211 212 213 212 207 200 199 209 211 214 219
223 226 232 244 243 251 258 264 274 275 276 277 280 281 280 278 276 275 274 275 264 254 251 247 243 240 239 237 236 227 218 216 214 212 211 211 211 204 197 190 189 85 249 163